Tracking 30061 objects as of 9-Dec-2024
HD Live streaming from Space Station
objects crossing your sky now

ONEWEB-0646

Track ONEWEB-0646 now!
10-day predictions
ONEWEB-0646 is classified as:


NORAD ID: 55810
Int'l Code: 2023-029Q
Perigee: 1,191.8 km
Apogee: 1,194.0 km
Inclination: 87.9 °
Period: 109.1 minutes
Semi major axis: 7563 km
RCS: Unknown
Launch date: March 9, 2023
Source: United Kingdom (UK)
Launch site: AIR FORCE EASTERN TEST RANGE (AFETR)
Your satellite tracking list
Your tracking list is empty




NASA's NSSDC Master Catalog

Two Line Element Set (TLE):
1 55810U 23029Q   24343.76155560 -.00000007  00000-0 -51017-4 0  9993
2 55810  87.9189  55.4253 0001444 102.1568 257.9727 13.19726627 86325
Source of the keplerian elements: AFSPC